CW3996 Weather Reports


Display with metric or nautical units.
time (UTC)temp
F
wind
direction
speed
MPH
gust
MPH
rain 1hr
in
rain 24hr
in
rain mn
in
humidity
%
barometer
mb
20260505111245 52 178 12.0 22.0 0.00 0.00 0.00 24 1009.3
20260505110718 52 161 10.0 20.0 0.00 0.00 0.00 24 1009.3
20260505110213 52 168 13.0 21.0 0.00 0.00 0.00 23 1009.3
20260505101720 53 180 12.0 21.0 0.00 0.00 0.00 25 1009.6
20260505101214 53 191 11.0 22.0 0.00 0.00 0.00 25 1009.6
20260505100732 53 185 11.0 22.0 0.00 0.00 0.00 25 1009.7
20260505100227 53 190 11.0 22.0 0.00 0.00 0.00 25 1009.8
20260505095741 53 172 10.0 22.0 0.00 0.00 0.00 25 1009.8
20260505095233 53 154 11.0 18.0 0.00 0.00 0.00 25 1009.8
20260505094726 53 194 10.0 18.0 0.00 0.00 0.00 25 1009.9
20260505094220 53 169 11.0 20.0 0.00 0.00 0.00 24 1009.8
20260505093715 54 196 9.0 24.0 0.00 0.00 0.00 24 1009.8
20260505093229 54 158 14.0 24.0 0.00 0.00 0.00 24 1009.8
20260505092726 54 142 12.0 19.0 0.00 0.00 0.00 24 1009.8
20260505092220 54 131 9.0 23.0 0.00 0.00 0.00 24 1009.8
20260505091714 54 181 13.0 23.0 0.00 0.00 0.00 24 1009.8
20260505091226 53 182 11.0 19.0 0.00 0.00 0.00 24 1009.8
20260505090720 52 195 8.0 18.0 0.00 0.00 0.00 26 1009.8
20260505090215 53 200 8.0 18.0 0.00 0.00 0.00 25 1009.8
20260505085728 53 180 8.0 15.0 0.00 0.00 0.00 25 1009.8
20260505085222 53 170 7.0 13.0 0.00 0.00 0.00 25 1009.9
20260505084720 53 173 8.0 13.0 0.00 0.00 0.00 25 1010.0
20260505084215 53 183 4.0 12.0 0.00 0.00 0.00 25 1010.0
20260505083728 53 182 5.0 12.0 0.00 0.00 0.00 25 1010.0
20260505083222 53 182 6.0 15.0 0.00 0.00 0.00 24 1010.0
20260505082715 53 184 8.0 15.0 0.00 0.00 0.00 24 1010.0
20260505082228 53 181 6.0 12.0 0.00 0.00 0.00 24 1010.1
20260505081722 54 184 6.0 12.0 0.00 0.00 0.00 24 1010.2
20260505081216 54 187 5.0 9.0 0.00 0.00 0.00 28 1010.3
20260505080713 54 244 3.0 11.0 0.00 0.00 0.00 33 1010.3
20260505080228 54 244 5.0 21.0 0.00 0.00 0.00 32 1010.2
20260505075720 55 235 10.0 29.0 0.00 0.00 0.00 31 1010.3
20260505075215 56 233 20.0 29.0 0.00 0.00 0.00 29 1010.4
20260505074749 56 199 8.0 16.0 0.00 0.00 0.00 21 1010.3
20260505074221 56 205 9.0 13.0 0.00 0.00 0.00 20 1010.2
20260505073715 56 204 5.0 10.0 0.00 0.00 0.00 22 1010.3
20260505073230 57 203 4.0 13.0 0.00 0.00 0.00 23 1010.2
20260505072744 56 203 7.0 13.0 0.00 0.00 0.00 23 1010.2
20260505072221 56 247 6.0 10.0 0.00 0.00 0.00 27 1010.2
20260505071714 56 263 2.0 9.0 0.00 0.00 0.00 26 1010.2
20260505071227 57 263 5.0 10.0 0.00 0.00 0.00 25 1010.2
20260505070721 57 275 4.0 26.0 0.00 0.00 0.00 24 1010.2
20260505070217 57 275 12.0 27.0 0.00 0.00 0.00 25 1010.3
20260505065729 57 233 16.0 27.0 0.00 0.00 0.00 26 1010.3
20260505065224 56 178 9.0 15.0 0.00 0.00 0.00 26 1010.3
20260505064718 57 166 8.0 16.0 0.00 0.00 0.00 27 1010.3
20260505064216 57 161 10.0 19.0 0.00 0.00 0.00 27 1010.2
20260505063730 57 188 10.0 19.0 0.00 0.00 0.00 28 1010.2
20260505063224 58 182 12.0 19.0 0.00 0.00 0.00 27 1010.1
20260505062738 58 180 8.0 14.0 0.00 0.00 0.00 26 1010.0
20260505062231 59 204 9.0 14.0 0.00 0.00 0.00 25 1009.9
20260505061746 59 208 10.0 19.0 0.00 0.00 0.00 23 1009.9
20260505061219 59 225 11.0 19.0 0.00 0.00 0.00 21 1009.7
20260505060713 58 211 13.0 18.0 0.00 0.00 0.00 25 1009.7
20260505060228 58 195 9.0 24.0 0.00 0.00 0.00 29 1009.8
20260505055726 58 167 15.0 24.0 0.00 0.00 0.00 29 1009.9
20260505055220 58 159 12.0 20.0 0.00 0.00 0.00 30 1009.8
20260505054734 57 168 10.0 15.0 0.00 0.00 0.00 33 1009.8
20260505054227 57 211 7.0 10.0 0.00 0.00 0.00 37 1009.7
20260505053719 57 212 7.0 12.0 0.00 0.00 0.00 39 1009.7
20260505053213 58 212 7.0 16.0 0.00 0.00 0.00 33 1009.7
20260505052747 58 208 10.0 16.0 0.00 0.00 0.00 31 1009.6
20260505052221 57 198 9.0 13.0 0.00 0.00 0.00 36 1009.7
20260505051715 55 188 5.0 12.0 0.00 0.00 0.00 49 1009.8
20260505051213 55 304 3.0 6.0 0.00 0.00 0.00 53 1009.9
20260505050747 55 304 2.0 6.0 0.00 0.00 0.00 52 1009.7
20260505050221 55 304 2.0 5.0 0.00 0.00 0.00 52 1009.7
20260505041730 56 304 1.0 5.0 0.00 0.00 0.00 45 1009.6
20260505041224 57 304 4.0 5.0 0.00 0.00 0.00 44 1009.5
20260505040718 57 304 0.0 2.0 0.00 0.00 0.00 42 1009.7
20260505040233 57 304 0.0 2.0 0.00 0.00 0.00 44 1009.7
20260505035746 57 304 0.0 5.0 0.00 0.00 0.00 44 1009.6
20260505035223 57 304 3.0 5.0 0.00 0.00 0.00 45 1009.6
20260505034717 57 304 0.0 5.0 0.00 0.00 0.00 42 1009.5
20260505034231 57 304 0.0 6.0 0.00 0.00 0.00 41 1009.6
20260505033725 58 304 5.0 6.0 0.00 0.00 0.00 41 1009.4
20260505033219 57 304 4.0 8.0 0.00 0.00 0.00 41 1009.3
20260505032713 58 304 3.0 9.0 0.00 0.00 0.00 41 1009.3
20260505032226 58 304 6.0 9.0 0.00 0.00 0.00 41 1009.2
20260505031719 58 304 2.0 8.0 0.00 0.00 0.00 41 1009.2
20260505031213 58 304 4.0 10.0 0.00 0.00 0.00 40 1009.0
20260505030730 58 304 4.0 10.0 0.00 0.00 0.00 41 1009.0
20260505030246 57 304 2.0 6.0 0.00 0.00 0.00 41 1009.0
20260505025718 57 304 0.0 3.0 0.00 0.00 0.00 42 1009.0
20260505025213 57 304 1.0 5.0 0.00 0.00 0.00 42 1008.9
20260505024727 57 304 2.0 9.0 0.00 0.00 0.00 42 1008.9
20260505024221 57 304 2.0 9.0 0.00 0.00 0.00 43 1008.8
20260505023715 57 295 6.0 9.0 0.00 0.00 0.00 43 1008.5
20260505023229 57 274 0.0 8.0 0.00 0.00 0.00 42 1008.5
20260505022727 57 274 3.0 11.0 0.00 0.00 0.00 42 1008.5
20260505022221 58 274 6.0 12.0 0.00 0.00 0.00 42 1008.4
20260505021715 58 259 7.0 15.0 0.00 0.00 0.00 40 1008.5
20260505021249 58 266 9.0 15.0 0.00 0.00 0.00 39 1008.4
20260505020722 59 286 8.0 12.0 0.00 0.00 0.00 37 1008.3
20260505020217 61 267 6.0 10.0 0.00 0.00 0.00 34 1008.2
20260505015731 62 207 3.0 10.0 0.00 0.00 0.00 28 1008.2
20260505015225 63 150 7.0 10.0 0.00 0.00 0.00 27 1008.0
20260505014723 63 149 6.0 15.0 0.00 0.00 0.00 26 1007.9
20260505014217 63 161 10.0 17.0 0.00 0.00 0.00 27 1007.9
20260505013731 63 125 11.0 17.0 0.00 0.00 0.00 27 1007.9
20260505013246 64 161 11.0 17.0 0.00 0.00 0.00 26 1007.9
20260505012718 64 175 11.0 16.0 0.00 0.00 0.00 24 1007.9
20260505012232 64 150 10.0 15.0 0.00 0.00 0.00 24 1007.9
20260505011726 64 154 12.0 15.0 0.00 0.00 0.00 24 1007.7
20260505011220 64 170 8.0 14.0 0.00 0.00 0.00 24 1007.7
20260505010718 64 167 7.0 14.0 0.00 0.00 0.00 24 1007.7
20260505010232 65 166 9.0 21.0 0.00 0.00 0.00 23 1007.8
20260505005726 65 156 12.0 21.0 0.00 0.00 0.00 23 1007.8
20260505005221 65 184 9.0 22.0 0.00 0.00 0.00 23 1007.8
20260505004714 65 164 9.0 22.0 0.00 0.00 0.00 24 1007.8
20260505003722 66 187 9.0 19.0 0.00 0.00 0.00 23 1007.9
20260505003216 66 202 12.0 16.0 0.00 0.00 0.00 21 1007.9
20260505002714 66 177 7.0 16.0 0.00 0.00 0.00 22 1007.8
20260505002227 66 163 9.0 17.0 0.00 0.00 0.00 21 1007.9
20260505001720 67 220 12.0 17.0 0.00 0.00 0.00 22 1007.8
20260505001215 67 254 9.0 15.0 0.00 0.00 0.00 24 1007.7
20260505000729 67 254 10.0 15.0 0.00 0.00 0.00 24 1007.6
20260505000226 67 251 11.0 15.0 0.00 0.00 0.00 24 1007.6
20260504235718 66 252 10.0 13.0 0.00 0.00 0.00 25 1007.6
20260504235232 66 251 9.0 15.0 0.00 0.00 0.00 25 1007.6
20260504234726 66 252 9.0 18.0 0.00 0.00 0.00 24 1007.7
20260504234224 66 252 12.0 21.0 0.00 0.00 0.00 25 1007.6
20260504233718 66 257 14.0 21.0 0.00 0.00 0.00 25 1007.6
20260504233232 66 250 11.0 19.0 0.00 0.00 0.00 28 1007.6
20260504232726 65 220 13.0 20.0 0.00 0.00 0.00 26 1007.7
20260504232220 65 229 13.0 20.0 0.00 0.00 0.00 25 1007.7
20260504231714 65 223 15.0 22.0 0.00 0.00 0.00 26 1007.8
20260504231228 66 229 15.0 25.0 0.00 0.00 0.00 27 1007.8
20260504230726 66 223 16.0 25.0 0.00 0.00 0.00 25 1007.9
20260504230241 67 244 19.0 29.0 0.00 0.00 0.00 26 1007.9
20260504225734 68 214 18.0 30.0 0.00 0.00 0.00 25 1007.9
20260504225227 68 213 22.0 30.0 0.00 0.00 0.00 23 1007.7
20260504224742 70 253 9.0 21.0 0.00 0.00 0.00 15 1007.7
20260504224215 71 206 9.0 12.0 0.00 0.00 0.00 13 1007.5
20260504223729 71 186 8.0 11.0 0.00 0.00 0.00 16 1007.5
20260504223223 71 165 3.0 14.0 0.00 0.00 0.00 16 1007.4
20260504222716 73 160 6.0 14.0 0.00 0.00 0.00 14 1007.5
20260504222251 71 188 5.0 10.0 0.00 0.00 0.00 18 1007.6
20260504221728 70 187 6.0 13.0 0.00 0.00 0.00 17 1007.7
20260504221222 71 198 7.0 31.0 0.00 0.00 0.00 17 1007.7
20260504220716 72 175 8.0 31.0 0.00 0.00 0.00 16 1007.7
20260504220251 72 298 5.0 13.0 0.00 0.00 0.00 15 1007.8
20260504215724 71 297 7.0 13.0 0.00 0.00 0.00 19 1007.9
20260504215218 69 265 5.0 14.0 0.00 0.00 0.00 17 1008.0
20260504214732 71 273 6.0 14.0 0.00 0.00 0.00 17 1008.1
20260504214225 70 227 5.0 10.0 0.00 0.00 0.00 18 1008.3
20260504213719 68 209 4.0 12.0 0.00 0.00 0.00 19 1008.3
20260504213217 68 219 7.0 14.0 0.00 0.00 0.00 21 1008.5
20260504212751 67 211 10.0 17.0 0.00 0.00 0.00 22 1008.7
20260504212224 67 200 12.0 19.0 0.00 0.00 0.00 22 1008.7
20260504211718 67 232 12.0 24.0 0.00 0.00 0.00 21 1008.7
20260504211232 67 226 15.0 33.0 0.00 0.00 0.00 21 1008.7
20260504210726 68 225 22.0 33.0 0.00 0.00 0.00 20 1008.6
20260504210241 69 196 14.0 22.0 0.00 0.00 0.00 18 1008.5
20260504205733 70 217 7.0 14.0 0.00 0.00 0.00 16 1008.7
20260504205247 71 37 5.0 14.0 0.00 0.00 0.00 17 1008.4
20260504204724 72 42 4.0 15.0 0.00 0.00 0.00 15 1008.4
20260504204238 72 42 11.0 15.0 0.00 0.00 0.00 18 1008.4
20260504203731 71 303 4.0 18.0 0.00 0.00 0.00 20 1008.5
20260504203225 69 278 9.0 29.0 0.00 0.00 0.00 21 1008.7
20260504202719 67 250 15.0 31.0 0.00 0.00 0.00 20 1008.8
20260504202253 69 219 20.0 31.0 0.00 0.00 0.00 19 1008.7
20260504201726 69 206 14.0 21.0 0.00 0.00 0.00 17 1008.7
20260504201221 70 211 10.0 12.0 0.00 0.00 0.00 16 1008.7
20260504200715 70 180 6.0 15.0 0.00 0.00 0.00 17 1008.6
20260504200230 70 181 9.0 15.0 0.00 0.00 0.00 16 1008.6
20260504195748 71 173 8.0 10.0 0.00 0.00 0.00 15 1008.7
20260504195221 71 155 4.0 14.0 0.00 0.00 0.00 16 1008.6
20260504194714 72 155 6.0 14.0 0.00 0.00 0.00 14 1008.7
20260504194228 72 190 6.0 11.0 0.00 0.00 0.00 14 1008.8
20260504193722 72 198 2.0 11.0 0.00 0.00 0.00 14 1008.9
20260504193216 72 198 5.0 10.0 0.00 0.00 0.00 16 1008.9
20260504192731 71 184 2.0 11.0 0.00 0.00 0.00 14 1008.9
20260504192225 72 184 7.0 11.0 0.00 0.00 0.00 14 1009.0
20260504191723 71 180 5.0 10.0 0.00 0.00 0.00 14 1009.0
20260504191237 70 191 2.0 5.0 0.00 0.00 0.00 16 1009.1
20260504190750 70 191 3.0 5.0 0.00 0.00 0.00 17 1009.1
20260504190225 70 191 1.0 6.0 0.00 0.00 0.00 17 1009.2
20260504185718 71 191 3.0 9.0 0.00 0.00 0.00 14 1009.4
20260504185252 71 191 3.0 9.0 0.00 0.00 0.00 13 1009.4
20260504184725 70 191 5.0 9.0 0.00 0.00 0.00 16 1009.6
20260504184219 68 194 1.0 6.0 0.00 0.00 0.00 17 1009.7
20260504183733 68 194 4.0 6.0 0.00 0.00 0.00 18 1009.8
20260504183248 68 195 1.0 7.0 0.00 0.00 0.00 16 1009.9
20260504182724 68 194 1.0 9.0 0.00 0.00 0.00 21 1010.0
20260504182218 68 195 3.0 12.0 0.00 0.00 0.00 18 1010.1
20260504181733 66 195 7.0 18.0 0.00 0.00 0.00 22 1010.3
20260504181227 66 196 13.0 18.0 0.00 0.00 0.00 24 1010.2
20260504180720 67 203 9.0 12.0 0.00 0.00 0.00 21 1010.3
20260504180216 67 200 7.0 10.0 0.00 0.00 0.00 20 1010.2
20260504175729 68 200 3.0 7.0 0.00 0.00 0.00 20 1010.2
20260504175224 70 200 4.0 7.0 0.00 0.00 0.00 18 1010.2
20260504174721 70 200 4.0 8.0 0.00 0.00 0.00 19 1010.2
20260504174215 69 197 3.0 10.0 0.00 0.00 0.00 19 1010.3
20260504173729 69 199 5.0 10.0 0.00 0.00 0.00 19 1010.4
20260504173223 69 205 7.0 10.0 0.00 0.00 0.00 21 1010.4
20260504172718 70 205 5.0 10.0 0.00 0.00 0.00 20 1010.5
20260504172231 69 211 6.0 11.0 0.00 0.00 0.00 19 1010.5
20260504171745 67 215 5.0 11.0 0.00 0.00 0.00 20 1010.5
20260504171238 68 213 8.0 11.0 0.00 0.00 0.00 20 1010.6
20260504170716 67 211 5.0 11.0 0.00 0.00 0.00 22 1010.7
20260504170251 66 210 8.0 11.0 0.00 0.00 0.00 21 1010.7
20260504160219 65 224 8.0 15.0 0.00 0.00 0.00 23 1010.9
20260504150714 63 227 7.0 10.0 0.00 0.00 0.00 25 1011.2
20260504150228 63 227 6.0 11.0 0.00 0.00 0.00 26 1011.2
20260504141228 61 217 13.0 17.0 0.00 0.00 0.00 28 1011.2
20260504140722 62 210 8.0 11.0 0.00 0.00 0.00 26 1011.2
20260504140217 61 196 8.0 11.0 0.00 0.00 0.00 25 1011.2
20260504130230 59 176 5.0 7.0 0.00 0.00 0.00 28 1010.6
20260504120241 59 192 7.0 11.0 0.00 0.00 0.00 28 1010.6